Location: Mactaquac Provincial Park
(45.9573°N, 66.8897°W)
Time: 00:06:23
(UTC-03:00)

CENTAUR R/B - Visible Passes

Search period start: 21 October 2017 00:00
Search period end: 31 October 2017 00:00
Orbit: 824 x 1365 km, 63.5° (Epoch: 10 September)

Date Brightness Start Highest point End Pass type
(mag) Time Alt. Az. Time Alt. Az. Time Alt. Az.
21 Oct 5.3 02:16:53 12° NE 02:16:53 12° NE 02:17:27 10° NE visible
21 Oct 4.3 04:04:04 26° N 04:04:04 26° N 04:08:22 10° NNE visible
21 Oct 4.6 05:51:15 13° NW 05:55:16 20° N 06:00:40 10° NE visible
22 Oct 4.7 03:17:23 22° NNE 03:17:23 22° NNE 03:20:01 10° NNE visible
22 Oct 4.4 05:04:34 19° NNW 05:06:08 21° N 05:11:36 10° NE visible
22 Oct 4.6 06:53:49 10° NNW 06:59:39 24° NNE 07:05:57 10° ENE visible
23 Oct 5.2 02:30:42 14° NNE 02:30:42 14° NNE 02:31:44 10° NE visible
23 Oct 4.4 04:17:52 23° N 04:17:52 23° N 04:22:51 10° NNE visible
23 Oct 4.7 06:05:14 10° NW 06:10:34 21° N 06:16:19 10° ENE visible
24 Oct 4.7 03:31:11 21° NNE 03:31:11 21° NNE 03:34:20 10° NNE visible
24 Oct 4.6 05:18:22 16° NNW 05:21:25 20° N 05:26:51 10° NE visible
24 Oct 4.4 07:08:09 10° NNW 07:14:42 31° NNE 07:21:48 10° E visible
25 Oct 5.1 02:44:29 16° NNE 02:44:29 16° NNE 02:45:58 10° NNE visible
25 Oct 4.5 04:31:40 20° NNW 04:32:16 20° N 04:37:42 10° NE visible
25 Oct 4.6 06:19:48 10° NNW 06:25:46 25° NNE 06:32:13 10° ENE visible
26 Oct 4.7 03:44:59 21° N 03:44:59 21° N 03:48:52 10° NE visible
26 Oct 4.7 05:32:10 13° NNW 05:36:42 22° NNE 05:42:34 10° ENE visible
26 Oct 4.1 07:22:19 10° NNW 07:29:33 43° NE 07:37:23 10° ESE visible
27 Oct 5.0 02:58:18 17° NNE 02:58:18 17° NNE 03:00:18 10° NNE visible
27 Oct 4.6 04:45:29 18° NNW 04:47:34 20° N 04:53:03 10° NE visible
27 Oct 4.4 06:34:05 10° NNW 06:40:47 33° NNE 06:48:02 10° E visible
28 Oct 5.4 02:11:38 11° NNE 02:11:38 11° NNE 02:11:55 10° NNE visible
28 Oct 4.7 03:58:50 20° N 03:58:50 20° N 04:03:49 10° NE visible
28 Oct 4.6 05:46:00 11° NNW 05:51:53 26° NNE 05:58:28 10° ENE visible
29 Oct 5.0 03:12:11 18° NNE 03:12:11 18° NNE 03:14:55 10° NE visible
29 Oct 4.6 04:59:22 16° NNW 05:02:50 22° NNE 05:08:49 10° ENE visible
29 Oct 4.0 06:48:14 10° NNW 06:55:34 46° NE 07:03:31 10° ESE visible
30 Oct 5.3 02:25:33 12° NNE 02:25:33 12° NNE 02:26:18 10° NNE visible
30 Oct 4.7 04:12:44 20° N 04:13:42 20° N 04:19:15 10° NE visible
30 Oct 4.3 06:00:01 10° NNW 06:06:51 35° NNE 06:14:15 10° E visible
